Tracking 29892 objects as of 21-Nov-2024
HD Live streaming from Space Station
objects crossing your sky now

DMSP 5D-2 F13 DEB

Track DMSP 5D-2 F13 DEB now!
10-day predictions


NORAD ID: 42266
Int'l Code: 1995-015GG
Perigee: 752.5 km
Apogee: 789.9 km
Inclination: 98.6 °
Period: 100.1 minutes
Semi major axis: 7142 km
RCS: Unknown
Launch date: March 24, 1995
Source: United States (US)
Launch site: AIR FORCE WESTERN TEST RANGE (AFWTR)

Note: This is SATELLITE DEBRIS
Your satellite tracking list
Your tracking list is empty




NASA's NSSDC Master Catalog

Two Line Element Set (TLE):
1 42266U 95015GG  24325.06529066  .00011794  00000-0  38673-2 0  9991
2 42266  98.6259 356.6212 0026194 198.8736 161.1482 14.38321425490784
Source of the keplerian elements: AFSPC